Regional Weather Roundup
Issued by NWS Wakefield, VA

Home | Current Version | Previous Version | Graphics & Text | Print | Product List | Glossary On
Versions: 1 2 3 4 5 6 7 8 9 10 11 12 13 14 15 16 17 18 19 20 21 22 23 24 25 26 27 28 29 30 31 32 33 34 35 36 37 38 39 40 41 42 43 44 45 46 47 48 49
000
ASUS41 KAKQ 031310
RWRAKQ

REGIONAL WEATHER ROUNDUP
NATIONAL WEATHER SERVICE WAKEFIELD VA
800 AM EST TUE MAR 03 2015

Note: "fair" indicates few or no clouds below 12,000 feet with no
significant weather and/or obstructions to visibility. * = Denotes
station may not report precipitation (e.g., rain,snow,etc.),
thunder or fog.

VAZ042-051-052>054-056-031400-
NORTHERN VIRGINIA

CITY           SKY/WX    TMP DP  RH WIND       PRES   REMARKS
WASH NATIONAL  CLOUDY    32  16  51 CALM      30.46R
DULLES         CLOUDY    28  16  60 CALM      30.44R
FORT BELVOIR   PTSUNNY   29  20  68 CALM      30.46R
QUANTICO       PTSUNNY   30  21  69 CALM      30.47R
FREDERICKSBRG* SUNNY     31  23  71 CALM      30.45R
STAFFORD*      SUNNY     28  18  65 CALM      30.48S
WARRENTON      MOSUNNY   29  24  79 CALM      30.44R
CULPEPER*      MOSUNNY   30  21  69 CALM      30.45R
MANASSAS*      MOSUNNY   28  27  93 CALM      30.45R
LEESBURG*      PTSUNNY   28  23  80 CALM      30.45R
WINCHESTER     CLOUDY    30  14  51 E5        30.39R
FRONT ROYAL*   CLOUDY    28  19  69 CALM      30.38R
LURAY*         CLOUDY    32  19  59 NE3       30.36S
$$

VAZ048-049-060>072-079>083-031400-
CENTRAL AND SOUTH CENTRAL VIRGINIA

CITY           SKY/WX    TMP DP  RH WIND       PRES   REMARKS
RICHMOND       CLOUDY    32  18  56 CALM      30.43S
CHESTERFIELD*  CLOUDY    30  12  47 CALM      30.44F
PETERSBURG*    CLOUDY    32  25  74 CALM      30.44F
HANOVER        CLOUDY    31  19  61 CALM      30.45S
TAPPAHANNOCK*  MOSUNNY   30  21  68 CALM      30.45R
QUINTON*       CLOUDY    29  24  79 S5        30.44F
CHARLOTTSVILLE CLOUDY    30  17  58 E3        30.40F
GORDONSVILLE*  CLOUDY    27  21  78 CALM      30.42S
ORANGE*        CLOUDY    30  23  74 CALM      30.44S
LOUISA*        CLOUDY    30  25  80 CALM      30.40F
BUMPASS*       FAIR      29  20  69 CALM      30.43S
FARMVILLE*     CLOUDY    35  19  53 CALM      30.41F
CREWE*         CLOUDY    32  17  52 SE3       30.41F
FORT PICKETT*  CLOUDY    32  19  58 E7        30.41F
CHASE CITY*    CLOUDY    35  24  62 E6        30.40S
CLARKSVILLE*   CLOUDY    34  23  64 E6        30.40S
SOUTH HILL*    CLOUDY    32  24  72 CALM      30.48R
LAWRENCEVILLE* CLOUDY    32  23  69 CALM      30.42S
EMPORIA*       CLOUDY    32  23  69 CALM      30.46R
$$

VAZ088>098-031400-
SOUTHEAST VIRGINIA

CITY           SKY/WX    TMP DP  RH WIND       PRES   REMARKS
NORFOLK        CLOUDY    32  23  69 NE9       30.44R
VIRGINIA BEACH CLOUDY    35  24  64 NE8       30.44R
NORFOLK NAVAL  PTSUNNY   36  21  54 NE9       30.47R
WEST POINT*    PTSUNNY   31  25  79 CALM      30.48R
SALUDA*        FAIR      30  20  65 CALM      30.45R
NEWPORT NEWS   PTSUNNY   34  20  56 NE6       30.46R
LANGLEY AFB    CLOUDY    32  20  62 N1        30.45R
FORT EUSTIS    CLOUDY    31  27  85 CALM      30.44R
WILLIAMSBURG*  PTSUNNY   34  27  75 CALM      30.46R
HR EXEC AP*    FAIR      32  21  64 NE3       30.48R
FRANKLIN*      PTSUNNY   31  24  74 N3        30.46R
WAKEFIELD      CLOUDY    32  23  69 CALM      30.45R
$$

VAZ020-022-025-037-045-031400-
WEST CENTRAL AND SOUTHWEST VIRGINIA

CITY           SKY/WX    TMP DP  RH WIND       PRES   REMARKS
STAUNTON*      CLOUDY    31  17  56 S8        30.34F
WAYNESBORO*    CLOUDY    29  15  55 SE9G17    30.32S
HOT SPRINGS VA CLOUDY    26  17  69 S14G20    30.18R WCI  14
LYNCHBURG      CLOUDY    32  18  56 E5        30.39F
DANVILLE       CLOUDY    37  23  56 E5        30.38S
SOUTH BOSTON*  CLOUDY    36  22  57 CALM      30.39F
MARTINSVILLE   CLOUDY    38  28  68 CALM      30.39S
ROANOKE        CLOUDY    33  20  58 SE7       30.39R
BLACKSBURG     MIX PCPN  31  25  79 E6        30.33R
DUBLIN*        CLOUDY    34  31  89 E3        30.31R
MARION*        CLOUDY    36  21  53 NE12      30.26S
HILLSVILLE*    CLOUDY    33  24  70 S7        30.26S
RICHLANDS*     DRIZZLE   41  30  66 SE5       30.16S
WISE*          CLOUDY    45  34  65 S10       30.15S
ABINGDON*      CLOUDY    41  27  57 E7        30.19S
$$

MDZ021>025-VAZ099-100-031400-
SOUTHERN MARYLAND AND THE DELMARVA PENINSULA

CITY           SKY/WX    TMP DP  RH WIND       PRES   REMARKS
PATUXENT RIVER CLOUDY    30  17  58 NE9       30.44S
BAY BRIDGE APT   N/A     30  18  59 E6        30.46R
LEONARDTOWN    CLOUDY    30  19  64 E3        30.45S
DOVER          PTSUNNY   28  15  58 NE10      30.45S WCI  18
GEORGETOWN     PTSUNNY   28  16  60 NE7       30.45R
EASTON         NOT AVBL
CAMBRIDGE      PTSUNNY   32  19  59 E7        30.45R
SALISBURY      PTSUNNY   31  19  61 NE7       30.44R
OCEAN CITY     PTSUNNY   31  19  61 NE8       30.45R
WALLOPS ISLAND PTSUNNY   29  18  63 NE6       30.45R
ACCOMACK*      MOSUNNY   32  16  51 NE6       30.44R
$$

NCZ012>017-030>032-031400-
NORTH CENTRAL AND EASTERN NORTH CAROLINA

CITY           SKY/WX    TMP DP  RH WIND       PRES   REMARKS
ROANOKE RAPIDS CLOUDY    32  27  80 CALM      30.43S
RALEIGH        CLOUDY    37  18  46 E13G20    30.39R
ELIZABETH CITY MOSUNNY   36  26  67 N3        30.43R
AHOSKIE*       CLOUDY    31  21  66 N3        30.44S
EDENTON*       MOSUNNY   32  27  80 N3        30.43R
CURRITUCK*     MOSUNNY   35  26  68 N5        30.44R
KILL DEVIL HLS MOSUNNY   38  30  73 N3        30.41R
MANTEO         MOSUNNY   39  30  70 N7        30.42R
CAPE HATTERAS  PTSUNNY   40  34  79 VRB7G16   30.38S
TARBORO*       CLOUDY    35  23  60 NE6       30.43S
GOLDSBORO      CLOUDY    38  29  71 NE10      30.39R
WASHINGTON     CLOUDY    35  24  64 NE5       30.42R
GREENVILLE     CLOUDY    36  27  69 NE8       30.41F
NEW BERN       CLOUDY    39  24  55 NE9       30.41R
WILMINGTON     CLOUDY    42  28  57 NE6       30.36R
$$

VAZ048-031400-
ELSEWHERE

CITY           SKY/WX    TMP DP  RH WIND       PRES   REMARKS
HARRISBURG PA  CLOUDY    24  11  57 SE5       30.40F
BALTIMORE      CLOUDY    28  15  58 E8        30.44R
ANNAPOLIS      CLOUDY    29  16  58 E7        30.46R
ANDREWS AFB    PTSUNNY   28  15  59 E6        30.42R
PHILADELPHIA   CLOUDY    27  10  49 N3        30.48R
HENDERSON NC   CLOUDY    34  20  56 E9        30.39F
GREENSBORO     CLOUDY    39  29  67 E8        30.34S
ROCKY MOUNT    CLOUDY    36  22  56 NE8       30.41S
$$

VAZ100-031400-
MARINE

STATION/POSITION TIME  TEMP    WIND        PRES    WAVE   SWELL
                       AIR SEA DIR/SP/G            HT/PER HT/PER
                 (UTC) (F)     (DEG/KT/KT) (MB)    (FT/S) (FT/S)
BRANDYWINE LGT   1300      30              1031.1S
CAPE MAY NJ      1300      33              1030.8F
LEWES DE         1300      30              1030.8R
15NM E FENWICK I 1300   31 35              1030.1R   3/ 4
OCEAN-CITY-INLET 1300      32              1030.2F
WACHAPREAGUE VA  1300      34              1030.7R
THOMAS POINT MD  1300   29 31   80/  9/ 10 1032.2R
COVE POINT MD    1300                      1030.5S
SOLOMONS ISLAND  1300      33                N/A
BISHOPS HEAD MD  1300      33              1030.2R
CAMBRIDGE MD     1300      32              1030.6F
LEWISETTA VA     1300      33              1030.9R
RAPPAHANNOCK LGT 1300                      1031.1F
STINGRAY PT      1300   32      60/ 10/ 12   N/A
YORK RVR RNG VA  1300                      1030.4R
YORKTOWN VA      1300      34              1030.8R
DOMINION TERM VA 1300                      1030.5R
KIPTOPEKE VA     1300      37                N/A
CHES BAY BRIDGE  1300      33              1030.1R
CAPE HENRY VA    1300                      1029.0R
CHESAPEAKE LGHT  1200   34      40/ 14/ 16 1029.9F
WILLOUBY STN VA  1300                      1031.3R
S CRANEY ISL VA  1300                      1030.6R
CAPE HENRY BUOY  1300      35                N/A     3/ 5
1ST LANDING BUOY 1300   33      50/ 10/ 14 1029.9S
OFFSHORE WE BUOY 1300      37                N/A     4/ 6   2/ 9
64NM E OF VA BCH 1300   45 62   50/ 10/ 16 1028.4R   5/ 6   3/ 6
DUCK PIER NC     1300      35              1028.7R
44100 DUCK FRF   1200      37                N/A     4/ 6
44056 DUCK FRF   1300      34                N/A     4/ 6
OREGON INLET NC  1300      39              1029.5R
HATTERAS NC      1300      43              1028.9R
CAPE LOOKOUT NC  1200   43      30/ 17/ 19 1027.3F
$$



USA.gov is the U.S. government's official web portal to all federal, state and local government web resources and services.